Погода в Новоазовске

Украина / Донецкая область     47°06′49″N   38°04′58″E
темп.,
°C
ветер,
м/с
пор.,
м/с
влажн.,
%
обл.,
%
осадки,
мм/ч
давл.,
гПа
погр.,
м
8 мая, сб
сб800:00+16ююз3369100 0.0 101688
03:00+15ю567295 0.0 1015271
06:00+15ююв567043 0.0 1014267
09:00+15ю6878100 0.0 1014322
12:00+16ююз5874100 0.0 1013214
15:00+16юз5874100 0.0 1011163
18:00+17зюз467231 0.0 1011131
21:00+16зюз4680100 0.0 1010185
9 мая, вс
вс900:00+13ссз111285100 0.1 1011610
03:00+10с121486100 3.9 1012657
06:00+10с111280100 3.1 10151031
09:00+10ссз91173100 3.2 10161317
12:00+12ссз10126076 0.1 10181582
15:00+13ссз81048100 0.1 10202033
18:00+14ссз10104588 0.0 10212183
21:00+13ссз810515 0.0 10241118
10 мая, пн
пн1000:00+11ссз9115950 0.0 1024728
03:00+10ссз911655 0.0 1025641
06:00+9ссз81170100 0.0 1025590
09:00+11ссз81160100 0.0 10251286
12:00+13с81048100 0.0 10242159
15:00+13ссз81151100 0.0 10231826
18:00+14с91251100 0.0 10222131
21:00+13ссз101458100 0.1 10211801
11 мая, вт
вт1100:00+13сз101459100 1.1 10171647
03:00+11ссз111572100 2.9 10151211
06:00+11ссз121583100 2.7 1014863
09:00+12с91188100 3.8 1014979
12:00+12ссв777389 0.6 10151003
15:00+12ссв8766100 0.8 10151129
18:00+11ссв7771100 0.1 10161004
21:00+10ссв5679100 0.4 1016655
12 мая, ср
ср1200:00+10св4380100 0.5 1015575
03:00+11вюв237686 1.4 1014601
06:00+11ююв677646 0.8 1015798
09:00+12ююв10108799 1.7 1016822
12:00+12ююв111276100 0.9 1017977
15:00+12юв3477100 1.6 1017660
18:00+13ссв4576100 0.3 1017520
21:00+14ссв677946 0.3 1016271